TimeAST,TemperatureF,Dew PointF,Humidity,Sea Level PressureIn,VisibilityMPH,Wind Direction,Wind SpeedMPH,Gust SpeedMPH,PrecipitationIn,Events,Conditions,WindDirDegrees,DateUTC
12:00 AM,75.2,75.2,100,29.80,6.2,NNE,2.3,-,N/A,,Partly Cloudy,20,2013-11-19 04:00:00
1:00 AM,73.4,73.4,100,29.77,6.2,NNE,2.3,-,N/A,,Partly Cloudy,30,2013-11-19 05:00:00
2:00 AM,73.4,73.4,100,29.77,6.2,NNE,2.3,-,N/A,,Partly Cloudy,20,2013-11-19 06:00:00
3:00 AM,73.4,73.4,100,29.74,6.2,NE,1.2,-,N/A,,Unknown,40,2013-11-19 07:00:00
4:00 AM,73.4,73.4,100,29.74,6.2,NE,1.2,-,N/A,,Unknown,50,2013-11-19 08:00:00
5:00 AM,73.4,73.4,100,29.74,6.2,NE,1.2,-,N/A,,Unknown,50,2013-11-19 09:00:00
5:55 AM,73.4,73.4,100,29.77,6.2,East,1.2,-,N/A,,Unknown,90,2013-11-19 09:55:00
6:00 AM,73.4,73.4,100,29.77,6.2,East,1.2,-,N/A,,Unknown,90,2013-11-19 10:00:00
7:00 AM,73.4,73.4,100,29.80,6.2,SSE,2.3,-,N/A,,Unknown,150,2013-11-19 11:00:00
8:00 AM,80.6,77.0,89,29.80,-9999.0,ESE,1.2,-,N/A,,Unknown,110,2013-11-19 12:00:00
9:00 AM,82.4,73.4,74,29.83,6.2,ESE,3.5,-,N/A,,Partly Cloudy,120,2013-11-19 13:00:00
10:00 AM,86.0,75.2,70,29.83,6.2,ESE,5.8,-,N/A,,Scattered Clouds,110,2013-11-19 14:00:00
11:00 AM,86.0,73.4,66,29.83,6.2,SE,8.1,-,N/A,,Scattered Clouds,130,2013-11-19 15:00:00
12:00 PM,86.0,73.4,66,29.83,6.2,SSE,8.1,-,N/A,,Partly Cloudy,160,2013-11-19 16:00:00
12:55 PM,87.8,73.4,62,29.80,6.2,South,6.9,-,N/A,,Scattered Clouds,170,2013-11-19 16:55:00
1:55 PM,86.0,71.6,62,29.77,-9999.0,SE,6.9,-,N/A,,Unknown,140,2013-11-19 17:55:00
2:55 PM,86.0,71.6,62,29.74,-9999.0,SSE,5.8,-,N/A,,Unknown,150,2013-11-19 18:55:00
3:55 PM,86.0,73.4,66,29.74,6.2,Variable,4.6,-,N/A,,Partly Cloudy,0,2013-11-19 19:55:00
4:55 PM,84.2,73.4,70,29.74,-9999.0,East,3.5,-,N/A,,Unknown,80,2013-11-19 20:55:00
5:55 PM,82.4,73.4,74,29.74,6.2,ENE,4.6,-,N/A,,Partly Cloudy,60,2013-11-19 21:55:00
6:55 PM,80.6,73.4,79,29.77,-9999.0,NE,4.6,-,N/A,,Unknown,50,2013-11-19 22:55:00
7:55 PM,78.8,73.4,83,29.80,-9999.0,NNE,4.6,-,N/A,,Unknown,30,2013-11-19 23:55:00
8:55 PM,78.8,73.4,83,29.83,-9999.0,NE,3.5,-,N/A,,Unknown,40,2013-11-20 00:55:00
9:55 PM,78.8,73.4,83,29.83,-9999.0,NE,3.5,-,N/A,,Unknown,50,2013-11-20 01:55:00